| time (UTC) | temp F | wind direction | speed MPH | gust MPH | rain 1hr in | rain 24hr in | rain mn in | humidity % | barometer mb |
| 20260507193048 | 65 | 55 | 5.0 | 13.0 | 0.00 | 0.00 | 0.00 | 77 | 1016.3 |
| 20260507192534 | 65 | 43 | 6.0 | 15.0 | 0.00 | 0.00 | 0.00 | 76 | 1016.3 |
| 20260507192034 | 65 | 326 | 7.0 | 15.0 | 0.00 | 0.00 | 0.00 | 76 | 1016.5 |
| 20260507191552 | 66 | 10 | 9.0 | 16.0 | 0.00 | 0.00 | 0.00 | 77 | 1016.0 |
| 20260507191032 | 65 | 87 | 9.0 | 16.0 | 0.00 | 0.00 | 0.00 | 76 | 1016.1 |
| 20260507190535 | 65 | 56 | 9.0 | 15.0 | 0.00 | 0.00 | 0.00 | 75 | 1016.7 |
| 20260507190048 | 66 | 27 | 6.0 | 15.0 | 0.00 | 0.00 | 0.00 | 75 | 1017.1 |
| 20260507185532 | 66 | 36 | 9.0 | 15.0 | 0.00 | 0.00 | 0.00 | 77 | 1016.8 |
| 20260507185033 | 66 | 40 | 6.0 | 15.0 | 0.00 | 0.00 | 0.00 | 76 | 1016.5 |
| 20260507184551 | 66 | 56 | 8.0 | 16.0 | 0.00 | 0.00 | 0.00 | 75 | 1017.1 |
| 20260507184033 | 66 | 63 | 6.0 | 19.0 | 0.00 | 0.00 | 0.00 | 76 | 1016.5 |
| 20260507183533 | 66 | 100 | 10.0 | 19.0 | 0.00 | 0.00 | 0.00 | 77 | 1016.0 |
| 20260507183043 | 65 | 83 | 12.0 | 18.0 | 0.00 | 0.00 | 0.00 | 76 | 1015.9 |
| 20260507182533 | 65 | 83 | 11.0 | 17.0 | 0.00 | 0.00 | 0.00 | 76 | 1015.8 |
| 20260507182033 | 65 | 81 | 9.0 | 17.0 | 0.00 | 0.00 | 0.00 | 77 | 1016.2 |
| 20260507181546 | 65 | 74 | 11.0 | 17.0 | 0.00 | 0.00 | 0.00 | 76 | 1016.4 |
| 20260507181033 | 65 | 61 | 9.0 | 16.0 | 0.00 | 0.00 | 0.00 | 77 | 1016.5 |
| 20260507180533 | 65 | 72 | 9.0 | 15.0 | 0.00 | 0.00 | 0.00 | 77 | 1016.6 |
| 20260507180054 | 65 | 80 | 10.0 | 15.0 | 0.00 | 0.00 | 0.00 | 77 | 1016.8 |
| 20260507175534 | 64 | 64 | 7.0 | 13.0 | 0.00 | 0.00 | 0.00 | 78 | 1017.0 |
| 20260507175032 | 64 | 44 | 7.0 | 13.0 | 0.00 | 0.00 | 0.00 | 79 | 1017.5 |
| 20260507174550 | 64 | 43 | 8.0 | 13.0 | 0.00 | 0.00 | 0.00 | 79 | 1017.4 |
| 20260507174032 | 64 | 18 | 7.0 | 13.0 | 0.00 | 0.00 | 0.00 | 79 | 1017.5 |
| 20260507173532 | 64 | 49 | 6.0 | 13.0 | 0.00 | 0.00 | 0.00 | 79 | 1017.6 |
| 20260507173047 | 64 | 49 | 7.0 | 13.0 | 0.00 | 0.00 | 0.00 | 79 | 1017.9 |
| 20260507172532 | 64 | 51 | 4.0 | 11.0 | 0.00 | 0.00 | 0.00 | 79 | 1018.1 |
| 20260507172031 | 64 | 66 | 6.0 | 14.0 | 0.00 | 0.00 | 0.00 | 79 | 1018.0 |
| 20260507171547 | 64 | 61 | 8.0 | 14.0 | 0.00 | 0.00 | 0.00 | 78 | 1017.9 |
| 20260507171032 | 64 | 25 | 6.0 | 18.0 | 0.00 | 0.00 | 0.00 | 79 | 1017.9 |
| 20260507170537 | 64 | 58 | 7.0 | 18.0 | 0.00 | 0.00 | 0.00 | 78 | 1017.7 |
| 20260507170047 | 64 | 73 | 8.0 | 15.0 | 0.00 | 0.00 | 0.00 | 79 | 1017.7 |
| 20260507165534 | 64 | 58 | 9.0 | 16.0 | 0.00 | 0.00 | 0.00 | 78 | 1017.6 |
| 20260507165034 | 64 | 66 | 7.0 | 16.0 | 0.00 | 0.00 | 0.00 | 79 | 1017.7 |
| 20260507164544 | 63 | 98 | 10.0 | 16.0 | 0.00 | 0.00 | 0.00 | 78 | 1017.6 |
| 20260507164031 | 63 | 61 | 8.0 | 15.0 | 0.00 | 0.00 | 0.00 | 79 | 1017.7 |
| 20260507163532 | 63 | 69 | 8.0 | 16.0 | 0.00 | 0.00 | 0.00 | 80 | 1017.9 |
| 20260507163052 | 63 | 66 | 9.0 | 16.0 | 0.00 | 0.00 | 0.00 | 79 | 1018.0 |
| 20260507162534 | 63 | 48 | 10.0 | 16.0 | 0.00 | 0.00 | 0.00 | 79 | 1018.0 |
| 20260507162035 | 63 | 64 | 7.0 | 18.0 | 0.00 | 0.00 | 0.00 | 80 | 1017.9 |
| 20260507161548 | 63 | 58 | 6.0 | 18.0 | 0.00 | 0.00 | 0.00 | 80 | 1017.8 |
| 20260507161032 | 63 | 49 | 10.0 | 18.0 | 0.00 | 0.00 | 0.00 | 80 | 1017.8 |
| 20260507160532 | 62 | 54 | 11.0 | 17.0 | 0.00 | 0.00 | 0.00 | 80 | 1017.8 |
| 20260507160047 | 62 | 39 | 12.0 | 17.0 | 0.00 | 0.00 | 0.00 | 80 | 1017.6 |
| 20260507155533 | 62 | 48 | 10.0 | 18.0 | 0.00 | 0.00 | 0.00 | 81 | 1017.5 |
| 20260507155031 | 62 | 98 | 10.0 | 18.0 | 0.00 | 0.00 | 0.00 | 80 | 1017.4 |
| 20260507154548 | 63 | 53 | 9.0 | 17.0 | 0.00 | 0.00 | 0.00 | 80 | 1017.5 |
| 20260507154032 | 62 | 45 | 11.0 | 17.0 | 0.00 | 0.00 | 0.00 | 81 | 1017.5 |
| 20260507153534 | 62 | 57 | 7.0 | 16.0 | 0.00 | 0.00 | 0.00 | 82 | 1017.6 |
| 20260507153046 | 62 | 74 | 10.0 | 17.0 | 0.00 | 0.00 | 0.00 | 83 | 1017.2 |
| 20260507152533 | 62 | 49 | 7.0 | 17.0 | 0.00 | 0.00 | 0.00 | 83 | 1017.3 |
| 20260507152034 | 62 | 60 | 10.0 | 17.0 | 0.00 | 0.00 | 0.00 | 83 | 1017.2 |
| 20260507151550 | 62 | 45 | 8.0 | 16.0 | 0.00 | 0.00 | 0.00 | 83 | 1017.2 |
| 20260507151034 | 62 | 17 | 8.0 | 18.0 | 0.00 | 0.00 | 0.00 | 83 | 1017.2 |
| 20260507150533 | 62 | 13 | 7.0 | 18.0 | 0.00 | 0.00 | 0.00 | 83 | 1017.3 |
| 20260507150051 | 62 | 36 | 11.0 | 18.0 | 0.00 | 0.00 | 0.00 | 83 | 1017.2 |
| 20260507145534 | 62 | 10 | 9.0 | 18.0 | 0.00 | 0.00 | 0.00 | 83 | 1017.4 |
| 20260507145033 | 62 | 24 | 10.0 | 18.0 | 0.00 | 0.00 | 0.00 | 83 | 1017.2 |
| 20260507144549 | 62 | 12 | 9.0 | 18.0 | 0.00 | 0.00 | 0.00 | 82 | 1017.3 |
| 20260507144036 | 62 | 26 | 11.0 | 20.0 | 0.00 | 0.00 | 0.00 | 82 | 1017.0 |
| 20260507143533 | 62 | 14 | 9.0 | 20.0 | 0.00 | 0.00 | 0.00 | 82 | 1017.1 |
| 20260507143048 | 62 | 31 | 8.0 | 17.0 | 0.00 | 0.00 | 0.00 | 83 | 1017.0 |
| 20260507142534 | 62 | 37 | 9.0 | 15.0 | 0.00 | 0.00 | 0.00 | 83 | 1016.7 |
| 20260507142033 | 62 | 23 | 8.0 | 20.0 | 0.00 | 0.00 | 0.00 | 83 | 1016.6 |
| 20260507141546 | 62 | 27 | 10.0 | 21.0 | 0.00 | 0.00 | 0.00 | 82 | 1016.7 |
| 20260507141033 | 62 | 41 | 14.0 | 21.0 | 0.00 | 0.00 | 0.00 | 82 | 1016.5 |
| 20260507140532 | 63 | 51 | 12.0 | 18.0 | 0.00 | 0.00 | 0.00 | 82 | 1016.4 |
| 20260507140100 | 63 | 37 | 9.0 | 17.0 | 0.00 | 0.00 | 0.00 | 82 | 1016.6 |
| 20260507135532 | 63 | 24 | 8.0 | 17.0 | 0.00 | 0.00 | 0.00 | 82 | 1016.6 |
| 20260507135033 | 63 | 68 | 8.0 | 17.0 | 0.00 | 0.00 | 0.00 | 82 | 1016.5 |
| 20260507134550 | 63 | 16 | 8.0 | 17.0 | 0.00 | 0.00 | 0.00 | 82 | 1016.8 |
| 20260507134032 | 63 | 11 | 11.0 | 16.0 | 0.00 | 0.00 | 0.00 | 81 | 1016.7 |
| 20260507133532 | 63 | 31 | 9.0 | 16.0 | 0.00 | 0.00 | 0.00 | 81 | 1016.4 |
| 20260507133051 | 63 | 63 | 8.0 | 16.0 | 0.00 | 0.00 | 0.00 | 81 | 1016.5 |
| 20260507132534 | 63 | 22 | 9.0 | 16.0 | 0.00 | 0.00 | 0.00 | 81 | 1016.7 |
| 20260507132034 | 63 | 64 | 9.0 | 16.0 | 0.00 | 0.00 | 0.00 | 81 | 1016.6 |
| 20260507131549 | 64 | 38 | 8.0 | 14.0 | 0.00 | 0.00 | 0.00 | 81 | 1016.5 |
| 20260507131033 | 64 | 37 | 8.0 | 13.0 | 0.00 | 0.00 | 0.00 | 81 | 1016.1 |
| 20260507130533 | 64 | 49 | 6.0 | 18.0 | 0.00 | 0.00 | 0.00 | 81 | 1016.2 |
| 20260507130047 | 64 | 49 | 7.0 | 18.0 | 0.00 | 0.00 | 0.00 | 81 | 1016.4 |
| 20260507125534 | 64 | 58 | 10.0 | 18.0 | 0.00 | 0.00 | 0.00 | 81 | 1016.4 |
| 20260507125034 | 64 | 39 | 7.0 | 14.0 | 0.00 | 0.00 | 0.00 | 80 | 1016.4 |
| 20260507124547 | 64 | 45 | 8.0 | 14.0 | 0.00 | 0.00 | 0.00 | 80 | 1016.3 |
| 20260507124033 | 64 | 70 | 6.0 | 13.0 | 0.00 | 0.00 | 0.00 | 80 | 1016.2 |
| 20260507123534 | 64 | 33 | 7.0 | 13.0 | 0.00 | 0.00 | 0.00 | 80 | 1016.2 |
| 20260507123046 | 64 | 34 | 5.0 | 12.0 | 0.00 | 0.00 | 0.00 | 81 | 1016.2 |
| 20260507122531 | 64 | 51 | 4.0 | 9.0 | 0.00 | 0.00 | 0.00 | 81 | 1016.1 |
| 20260507122031 | 64 | 37 | 3.0 | 12.0 | 0.00 | 0.00 | 0.00 | 81 | 1016.2 |
| 20260507121545 | 64 | 59 | 6.0 | 12.0 | 0.00 | 0.00 | 0.00 | 81 | 1016.1 |
| 20260507121031 | 64 | 62 | 6.0 | 11.0 | 0.00 | 0.00 | 0.00 | 81 | 1016.0 |
| 20260507120533 | 64 | 53 | 6.0 | 11.0 | 0.00 | 0.00 | 0.00 | 81 | 1016.0 |
| 20260507120050 | 64 | 74 | 5.0 | 9.0 | 0.00 | 0.00 | 0.00 | 81 | 1015.9 |
| 20260507115532 | 64 | 42 | 2.0 | 7.0 | 0.00 | 0.00 | 0.00 | 81 | 1015.9 |
| 20260507115033 | 64 | 42 | 4.0 | 8.0 | 0.00 | 0.00 | 0.00 | 81 | 1015.9 |
| 20260507114545 | 64 | 47 | 3.0 | 9.0 | 0.00 | 0.00 | 0.00 | 81 | 1015.6 |
| 20260507114034 | 64 | 64 | 4.0 | 9.0 | 0.00 | 0.00 | 0.00 | 81 | 1015.3 |
| 20260507113532 | 64 | 22 | 5.0 | 9.0 | 0.00 | 0.00 | 0.00 | 81 | 1015.2 |
| 20260507113048 | 64 | 74 | 4.0 | 11.0 | 0.00 | 0.00 | 0.00 | 81 | 1015.5 |
| 20260507112536 | 64 | 39 | 4.0 | 11.0 | 0.00 | 0.00 | 0.00 | 81 | 1015.4 |
| 20260507112036 | 64 | 26 | 6.0 | 11.0 | 0.00 | 0.00 | 0.00 | 81 | 1015.3 |
| 20260507111548 | 64 | 332 | 3.0 | 12.0 | 0.00 | 0.00 | 0.00 | 80 | 1015.1 |
| 20260507111031 | 64 | 56 | 6.0 | 14.0 | 0.00 | 0.00 | 0.00 | 80 | 1014.8 |
| 20260507110532 | 64 | 49 | 7.0 | 14.0 | 0.00 | 0.00 | 0.00 | 80 | 1014.7 |
| 20260507110051 | 64 | 11 | 7.0 | 14.0 | 0.00 | 0.00 | 0.00 | 80 | 1014.6 |
| 20260507105532 | 65 | 78 | 7.0 | 14.0 | 0.00 | 0.00 | 0.00 | 80 | 1014.6 |
| 20260507105031 | 65 | 28 | 8.0 | 14.0 | 0.00 | 0.00 | 0.00 | 80 | 1014.6 |
| 20260507104544 | 65 | 75 | 6.0 | 13.0 | 0.00 | 0.00 | 0.00 | 80 | 1014.6 |
| 20260507104033 | 65 | 58 | 8.0 | 14.0 | 0.00 | 0.00 | 0.00 | 80 | 1014.6 |
| 20260507103532 | 65 | 39 | 8.0 | 14.0 | 0.00 | 0.00 | 0.00 | 80 | 1014.5 |
| 20260507103046 | 65 | 68 | 7.0 | 12.0 | 0.00 | 0.00 | 0.00 | 80 | 1014.4 |
| 20260507102532 | 65 | 41 | 6.0 | 12.0 | 0.00 | 0.00 | 0.00 | 80 | 1014.4 |
| 20260507102032 | 65 | 34 | 7.0 | 12.0 | 0.00 | 0.00 | 0.00 | 80 | 1014.7 |
| 20260507101601 | 65 | 44 | 6.0 | 10.0 | 0.00 | 0.00 | 0.00 | 80 | 1014.7 |
| 20260507101030 | 65 | 80 | 3.0 | 12.0 | 0.00 | 0.00 | 0.00 | 80 | 1014.7 |
| 20260507100531 | 65 | 51 | 4.0 | 12.0 | 0.00 | 0.00 | 0.00 | 80 | 1014.7 |
| 20260507100048 | 65 | 48 | 7.0 | 12.0 | 0.00 | 0.00 | 0.00 | 80 | 1014.5 |
| 20260507095533 | 65 | 37 | 6.0 | 10.0 | 0.00 | 0.00 | 0.00 | 80 | 1014.4 |
| 20260507095031 | 65 | 54 | 5.0 | 12.0 | 0.00 | 0.00 | 0.00 | 80 | 1014.6 |
| 20260507094556 | 65 | 52 | 6.0 | 12.0 | 0.00 | 0.00 | 0.00 | 81 | 1014.5 |
| 20260507094031 | 65 | 83 | 5.0 | 12.0 | 0.00 | 0.00 | 0.00 | 81 | 1014.6 |
| 20260507093531 | 65 | 37 | 5.0 | 11.0 | 0.00 | 0.00 | 0.00 | 81 | 1014.6 |
| 20260507093046 | 65 | 6 | 6.0 | 11.0 | 0.00 | 0.00 | 0.00 | 81 | 1014.6 |
| 20260507092534 | 65 | 51 | 6.0 | 11.0 | 0.00 | 0.00 | 0.00 | 81 | 1014.6 |
| 20260507092034 | 65 | 29 | 5.0 | 11.0 | 0.00 | 0.00 | 0.00 | 81 | 1014.7 |
| 20260507091555 | 65 | 63 | 3.0 | 9.0 | 0.00 | 0.00 | 0.00 | 81 | 1014.7 |
| 20260507091031 | 65 | 50 | 5.0 | 9.0 | 0.00 | 0.00 | 0.00 | 80 | 1014.7 |
| 20260507090533 | 65 | 38 | 4.0 | 12.0 | 0.00 | 0.00 | 0.00 | 81 | 1014.6 |
| 20260507085534 | 65 | 59 | 8.0 | 12.0 | 0.00 | 0.00 | 0.00 | 80 | 1014.7 |
| 20260507085031 | 65 | 47 | 8.0 | 13.0 | 0.00 | 0.00 | 0.00 | 80 | 1014.8 |
| 20260507084547 | 65 | 56 | 5.0 | 13.0 | 0.00 | 0.00 | 0.00 | 80 | 1014.7 |
| 20260507084033 | 65 | 51 | 7.0 | 13.0 | 0.00 | 0.00 | 0.00 | 80 | 1014.7 |
| 20260507083537 | 65 | 43 | 6.0 | 12.0 | 0.00 | 0.00 | 0.00 | 81 | 1014.7 |
| 20260507083048 | 65 | 41 | 4.0 | 12.0 | 0.00 | 0.00 | 0.00 | 81 | 1014.8 |
| 20260507082533 | 65 | 20 | 6.0 | 12.0 | 0.00 | 0.00 | 0.00 | 81 | 1014.7 |
| 20260507082035 | 65 | 33 | 6.0 | 10.0 | 0.00 | 0.00 | 0.00 | 81 | 1014.9 |
| 20260507081554 | 65 | 64 | 3.0 | 9.0 | 0.00 | 0.00 | 0.00 | 81 | 1014.9 |
| 20260507081034 | 65 | 38 | 4.0 | 11.0 | 0.00 | 0.00 | 0.00 | 80 | 1015.0 |
| 20260507080535 | 65 | 51 | 6.0 | 11.0 | 0.00 | 0.00 | 0.00 | 80 | 1015.0 |
| 20260507080044 | 65 | 43 | 5.0 | 10.0 | 0.00 | 0.00 | 0.00 | 80 | 1015.1 |
| 20260507075531 | 65 | 65 | 6.0 | 11.0 | 0.00 | 0.00 | 0.00 | 80 | 1015.2 |
| 20260507075033 | 65 | 50 | 5.0 | 11.0 | 0.00 | 0.00 | 0.00 | 80 | 1015.1 |
| 20260507074544 | 65 | 22 | 4.0 | 10.0 | 0.00 | 0.00 | 0.00 | 80 | 1015.1 |
| 20260507074033 | 65 | 43 | 4.0 | 9.0 | 0.00 | 0.00 | 0.00 | 80 | 1015.0 |
| 20260507073531 | 65 | 27 | 5.0 | 9.0 | 0.00 | 0.00 | 0.00 | 80 | 1015.0 |
| 20260507073056 | 65 | 45 | 5.0 | 12.0 | 0.00 | 0.00 | 0.00 | 80 | 1015.0 |
| 20260507072531 | 65 | 69 | 5.0 | 14.0 | 0.00 | 0.00 | 0.00 | 80 | 1015.1 |
| 20260507072034 | 65 | 38 | 8.0 | 14.0 | 0.00 | 0.00 | 0.00 | 80 | 1015.3 |
| 20260507071548 | 65 | 58 | 7.0 | 14.0 | 0.00 | 0.00 | 0.00 | 80 | 1015.3 |
| 20260507071034 | 65 | 72 | 5.0 | 11.0 | 0.00 | 0.00 | 0.00 | 80 | 1015.4 |
| 20260507070534 | 65 | 78 | 6.0 | 11.0 | 0.00 | 0.00 | 0.00 | 81 | 1015.4 |
| 20260507070135 | 65 | 87 | 7.0 | 11.0 | 0.00 | 0.00 | 0.00 | 81 | 1015.4 |
| 20260507065534 | 65 | 60 | 5.0 | 10.0 | 0.00 | 0.00 | 0.00 | 81 | 1015.4 |
| 20260507065033 | 65 | 56 | 4.0 | 12.0 | 0.00 | 0.00 | 0.00 | 81 | 1015.6 |
| 20260507064550 | 65 | 70 | 5.0 | 12.0 | 0.00 | 0.00 | 0.00 | 81 | 1015.4 |
| 20260507064034 | 65 | 105 | 6.0 | 10.0 | 0.00 | 0.00 | 0.00 | 82 | 1015.1 |
| 20260507063532 | 65 | 51 | 6.0 | 10.0 | 0.00 | 0.00 | 0.00 | 82 | 1015.2 |
| 20260507063047 | 65 | 74 | 3.0 | 10.0 | 0.00 | 0.00 | 0.00 | 82 | 1015.2 |
| 20260507062535 | 65 | 73 | 5.0 | 10.0 | 0.00 | 0.00 | 0.00 | 82 | 1015.1 |
| 20260507062034 | 65 | 65 | 4.0 | 8.0 | 0.00 | 0.00 | 0.00 | 83 | 1014.9 |
| 20260507061547 | 65 | 53 | 3.0 | 8.0 | 0.00 | 0.00 | 0.00 | 83 | 1015.0 |
| 20260507061034 | 65 | 79 | 3.0 | 8.0 | 0.00 | 0.00 | 0.00 | 83 | 1015.0 |
| 20260507060531 | 65 | 70 | 5.0 | 8.0 | 0.00 | 0.00 | 0.00 | 83 | 1015.0 |
| 20260507060047 | 65 | 94 | 4.0 | 8.0 | 0.00 | 0.00 | 0.00 | 83 | 1014.7 |
| 20260507055534 | 65 | 100 | 5.0 | 9.0 | 0.00 | 0.00 | 0.00 | 82 | 1014.7 |
| 20260507055034 | 65 | 68 | 4.0 | 10.0 | 0.00 | 0.00 | 0.00 | 82 | 1014.7 |
| 20260507054552 | 65 | 66 | 6.0 | 10.0 | 0.00 | 0.00 | 0.00 | 82 | 1014.5 |
| 20260507054032 | 65 | 62 | 4.0 | 9.0 | 0.00 | 0.00 | 0.00 | 82 | 1014.4 |
| 20260507053533 | 65 | 65 | 4.0 | 10.0 | 0.00 | 0.00 | 0.00 | 82 | 1014.4 |
| 20260507053044 | 65 | 83 | 6.0 | 12.0 | 0.00 | 0.00 | 0.00 | 82 | 1014.3 |
| 20260507052533 | 65 | 72 | 6.0 | 12.0 | 0.00 | 0.00 | 0.00 | 82 | 1014.0 |
| 20260507052031 | 65 | 55 | 6.0 | 12.0 | 0.00 | 0.00 | 0.00 | 82 | 1014.2 |
| 20260507051549 | 65 | 57 | 4.0 | 11.0 | 0.00 | 0.00 | 0.00 | 82 | 1014.1 |
| 20260507051033 | 65 | 51 | 6.0 | 12.0 | 0.00 | 0.00 | 0.00 | 82 | 1014.1 |
| 20260507050533 | 65 | 57 | 5.0 | 12.0 | 0.00 | 0.00 | 0.00 | 82 | 1013.8 |
| 20260507050048 | 65 | 72 | 7.0 | 12.0 | 0.00 | 0.00 | 0.00 | 82 | 1013.7 |
| 20260507045534 | 66 | 91 | 6.0 | 10.0 | 0.00 | 0.00 | 0.00 | 82 | 1013.8 |
| 20260507045037 | 66 | 60 | 4.0 | 10.0 | 0.00 | 0.00 | 0.00 | 82 | 1013.9 |
| 20260507044549 | 66 | 68 | 5.0 | 10.0 | 0.00 | 0.00 | 0.00 | 82 | 1013.9 |
| 20260507044032 | 66 | 47 | 4.0 | 9.0 | 0.00 | 0.00 | 0.00 | 82 | 1014.0 |
| 20260507043531 | 66 | 85 | 4.0 | 11.0 | 0.00 | 0.00 | 0.00 | 82 | 1013.9 |
| 20260507043049 | 66 | 76 | 6.0 | 11.0 | 0.00 | 0.00 | 0.00 | 82 | 1013.9 |
| 20260507042530 | 66 | 56 | 5.0 | 11.0 | 0.00 | 0.00 | 0.00 | 82 | 1014.0 |
| 20260507042035 | 66 | 37 | 4.0 | 9.0 | 0.00 | 0.00 | 0.00 | 82 | 1014.3 |
| 20260507041549 | 66 | 43 | 3.0 | 9.0 | 0.00 | 0.00 | 0.00 | 82 | 1014.2 |
| 20260507041033 | 66 | 43 | 4.0 | 9.0 | 0.00 | 0.00 | 0.00 | 81 | 1014.2 |
| 20260507040531 | 66 | 37 | 2.0 | 9.0 | 0.00 | 0.00 | 0.00 | 82 | 1014.1 |
| 20260507040051 | 66 | 47 | 2.0 | 9.0 | 0.00 | 0.00 | 0.00 | 82 | 1013.8 |
| 20260507035533 | 66 | 46 | 3.0 | 9.0 | 0.00 | 0.00 | 0.00 | 81 | 1013.7 |
| 20260507035034 | 66 | 5 | 4.0 | 11.0 | 0.00 | 0.00 | 0.00 | 81 | 1013.6 |
| 20260507034549 | 66 | 60 | 5.0 | 11.0 | 0.00 | 0.00 | 0.00 | 81 | 1013.4 |
| 20260507034033 | 66 | 41 | 7.0 | 10.0 | 0.00 | 0.00 | 0.00 | 81 | 1013.4 |
| 20260507033537 | 66 | 45 | 6.0 | 10.0 | 0.00 | 0.00 | 0.00 | 81 | 1013.2 |
| 20260507033048 | 66 | 64 | 5.0 | 9.0 | 0.00 | 0.00 | 0.00 | 81 | 1013.1 |
| 20260507032534 | 66 | 45 | 5.0 | 9.0 | 0.00 | 0.00 | 0.00 | 80 | 1013.2 |
| 20260507032033 | 66 | 77 | 5.0 | 9.0 | 0.00 | 0.00 | 0.00 | 80 | 1013.3 |
| 20260507031550 | 66 | 66 | 4.0 | 12.0 | 0.00 | 0.00 | 0.00 | 80 | 1013.3 |
| 20260507031036 | 66 | 98 | 4.0 | 12.0 | 0.00 | 0.00 | 0.00 | 80 | 1013.1 |
| 20260507030531 | 66 | 51 | 5.0 | 12.0 | 0.00 | 0.00 | 0.00 | 80 | 1013.0 |
| 20260507030056 | 67 | 39 | 6.0 | 12.0 | 0.00 | 0.00 | 0.00 | 80 | 1012.9 |
| 20260507025532 | 67 | 36 | 6.0 | 12.0 | 0.00 | 0.00 | 0.00 | 80 | 1013.0 |
| 20260507025035 | 67 | 49 | 6.0 | 11.0 | 0.00 | 0.00 | 0.00 | 79 | 1013.0 |
| 20260507024548 | 67 | 33 | 3.0 | 12.0 | 0.00 | 0.00 | 0.00 | 79 | 1013.0 |
| 20260507024035 | 67 | 35 | 7.0 | 16.0 | 0.00 | 0.00 | 0.00 | 79 | 1012.9 |
| 20260507023537 | 67 | 49 | 7.0 | 16.0 | 0.00 | 0.00 | 0.00 | 78 | 1012.9 |
| 20260507023048 | 67 | 31 | 9.0 | 15.0 | 0.00 | 0.00 | 0.00 | 78 | 1012.7 |
| 20260507022532 | 67 | 21 | 8.0 | 13.0 | 0.00 | 0.00 | 0.00 | 78 | 1012.7 |
| 20260507022032 | 68 | 33 | 5.0 | 13.0 | 0.00 | 0.00 | 0.00 | 78 | 1012.8 |
| 20260507021602 | 68 | 57 | 6.0 | 11.0 | 0.00 | 0.00 | 0.00 | 77 | 1012.7 |
| 20260507021034 | 68 | 332 | 5.0 | 12.0 | 0.00 | 0.00 | 0.00 | 77 | 1012.7 |
| 20260507020532 | 68 | 16 | 3.0 | 13.0 | 0.00 | 0.00 | 0.00 | 77 | 1012.6 |
| 20260507020056 | 68 | 22 | 4.0 | 13.0 | 0.00 | 0.00 | 0.00 | 77 | 1012.7 |
| 20260507015534 | 69 | 28 | 8.0 | 13.0 | 0.00 | 0.00 | 0.00 | 76 | 1012.5 |
| 20260507015031 | 69 | 29 | 7.0 | 13.0 | 0.00 | 0.00 | 0.00 | 76 | 1012.4 |
| 20260507014609 | 69 | 44 | 5.0 | 15.0 | 0.00 | 0.00 | 0.00 | 76 | 1012.2 |
| 20260507014035 | 69 | 10 | 8.0 | 15.0 | 0.00 | 0.00 | 0.00 | 75 | 1012.1 |
| 20260507013534 | 69 | 58 | 8.0 | 17.0 | 0.00 | 0.00 | 0.00 | 75 | 1012.0 |
| 20260507013053 | 70 | 62 | 9.0 | 17.0 | 0.00 | 0.00 | 0.00 | 75 | 1011.9 |
| 20260507012534 | 70 | 24 | 7.0 | 16.0 | 0.00 | 0.00 | 0.00 | 74 | 1011.4 |
| 20260507012036 | 70 | 26 | 9.0 | 15.0 | 0.00 | 0.00 | 0.00 | 74 | 1011.5 |
| 20260507011548 | 71 | 50 | 7.0 | 15.0 | 0.00 | 0.00 | 0.00 | 74 | 1011.6 |
| 20260507011034 | 71 | 33 | 8.0 | 15.0 | 0.00 | 0.00 | 0.00 | 73 | 1011.6 |
| 20260507010535 | 71 | 349 | 9.0 | 15.0 | 0.00 | 0.00 | 0.00 | 73 | 1011.5 |
| 20260507010100 | 72 | 26 | 9.0 | 14.0 | 0.00 | 0.00 | 0.00 | 72 | 1011.3 |
| 20260507005535 | 72 | 24 | 8.0 | 13.0 | 0.00 | 0.00 | 0.00 | 73 | 1011.6 |
| 20260507005033 | 72 | 58 | 6.0 | 12.0 | 0.00 | 0.00 | 0.00 | 74 | 1011.6 |
| 20260507004547 | 72 | 353 | 5.0 | 14.0 | 0.00 | 0.00 | 0.00 | 74 | 1011.4 |
| 20260507004035 | 72 | 33 | 6.0 | 14.0 | 0.00 | 0.00 | 0.00 | 73 | 1011.3 |
| 20260507003534 | 73 | 37 | 6.0 | 16.0 | 0.00 | 0.00 | 0.00 | 73 | 1011.1 |
| 20260507003047 | 73 | 29 | 7.0 | 16.0 | 0.00 | 0.00 | 0.00 | 72 | 1011.2 |
| 20260507002536 | 74 | 20 | 5.0 | 19.0 | 0.00 | 0.00 | 0.00 | 73 | 1011.3 |
| 20260507002033 | 74 | 36 | 7.0 | 19.0 | 0.00 | 0.00 | 0.00 | 72 | 1011.1 |
| 20260507001552 | 75 | 29 | 9.0 | 15.0 | 0.00 | 0.00 | 0.00 | 72 | 1010.8 |
| 20260507001030 | 75 | 26 | 6.0 | 14.0 | 0.00 | 0.00 | 0.00 | 72 | 1010.9 |
| 20260507000531 | 75 | 20 | 7.0 | 17.0 | 0.00 | 0.00 | 0.00 | 72 | 1010.9 |
| 20260507000048 | 75 | 8 | 7.0 | 17.0 | 0.00 | 0.00 | 0.00 | 72 | 1010.8 |
| 20260506235535 | 75 | 39 | 8.0 | 17.0 | 0.00 | 0.00 | 0.00 | 72 | 1010.8 |
| 20260506235036 | 76 | 29 | 10.0 | 17.0 | 0.00 | 0.00 | 0.00 | 71 | 1010.5 |
| 20260506234547 | 76 | 22 | 9.0 | 17.0 | 0.00 | 0.00 | 0.00 | 70 | 1010.4 |
| 20260506234034 | 76 | 37 | 10.0 | 19.0 | 0.00 | 0.00 | 0.00 | 71 | 1010.2 |
| 20260506233532 | 76 | 2 | 8.0 | 19.0 | 0.00 | 0.00 | 0.00 | 71 | 1010.1 |
| 20260506233049 | 77 | 39 | 9.0 | 19.0 | 0.00 | 0.00 | 0.00 | 70 | 1010.2 |
| 20260506232534 | 77 | 8 | 11.0 | 16.0 | 0.00 | 0.00 | 0.00 | 69 | 1010.1 |
| 20260506232034 | 78 | 345 | 8.0 | 16.0 | 0.00 | 0.00 | 0.00 | 69 | 1010.0 |
| 20260506231546 | 78 | 52 | 7.0 | 16.0 | 0.00 | 0.00 | 0.00 | 69 | 1009.9 |
| 20260506231035 | 78 | 16 | 10.0 | 15.0 | 0.00 | 0.00 | 0.00 | 69 | 1009.8 |
| 20260506230531 | 79 | 7 | 10.0 | 16.0 | 0.00 | 0.00 | 0.00 | 69 | 1009.7 |
| 20260506230103 | 80 | 345 | 8.0 | 16.0 | 0.00 | 0.00 | 0.00 | 68 | 1009.7 |
| 20260506225535 | 81 | 39 | 10.0 | 16.0 | 0.00 | 0.00 | 0.00 | 68 | 1009.7 |
| 20260506225035 | 81 | 350 | 7.0 | 17.0 | 0.00 | 0.00 | 0.00 | 66 | 1009.6 |
| 20260506224549 | 83 | 23 | 8.0 | 17.0 | 0.00 | 0.00 | 0.00 | 66 | 1009.5 |
| 20260506224032 | 85 | 18 | 10.0 | 17.0 | 0.00 | 0.00 | 0.00 | 63 | 1009.4 |
| 20260506223531 | 86 | 47 | 10.0 | 20.0 | 0.00 | 0.00 | 0.00 | 66 | 1009.3 |
| 20260506223047 | 86 | 66 | 10.0 | 20.0 | 0.00 | 0.00 | 0.00 | 66 | 1009.3 |
| 20260506222534 | 87 | 57 | 12.0 | 20.0 | 0.00 | 0.00 | 0.00 | 65 | 1009.3 |
| 20260506222033 | 88 | 340 | 6.0 | 12.0 | 0.00 | 0.00 | 0.00 | 66 | 1009.2 |
| 20260506221548 | 88 | 53 | 5.0 | 11.0 | 0.00 | 0.00 | 0.00 | 65 | 1009.2 |
| 20260506221034 | 88 | 51 | 4.0 | 10.0 | 0.00 | 0.00 | 0.00 | 65 | 1009.1 |
| 20260506220533 | 88 | 354 | 5.0 | 11.0 | 0.00 | 0.00 | 0.00 | 64 | 1009.1 |
| 20260506220051 | 88 | 37 | 6.0 | 11.0 | 0.00 | 0.00 | 0.00 | 68 | 1009.1 |
| 20260506215534 | 88 | 54 | 6.0 | 11.0 | 0.00 | 0.00 | 0.00 | 65 | 1009.1 |
| 20260506215034 | 87 | 6 | 4.0 | 12.0 | 0.00 | 0.00 | 0.00 | 66 | 1009.1 |
| 20260506214547 | 87 | 23 | 6.0 | 12.0 | 0.00 | 0.00 | 0.00 | 67 | 1009.0 |
| 20260506214033 | 87 | 33 | 5.0 | 11.0 | 0.00 | 0.00 | 0.00 | 69 | 1009.0 |
| 20260506213535 | 85 | 63 | 5.0 | 11.0 | 0.00 | 0.00 | 0.00 | 69 | 1009.2 |
| 20260506213047 | 86 | 62 | 7.0 | 11.0 | 0.00 | 0.00 | 0.00 | 68 | 1009.1 |
| 20260506212533 | 87 | 99 | 3.0 | 9.0 | 0.00 | 0.00 | 0.00 | 67 | 1009.1 |
| 20260506212031 | 87 | 10 | 2.0 | 6.0 | 0.00 | 0.00 | 0.00 | 67 | 1009.3 |
| 20260506211547 | 86 | 42 | 2.0 | 8.0 | 0.00 | 0.00 | 0.00 | 66 | 1009.4 |
| 20260506211031 | 88 | 14 | 4.0 | 8.0 | 0.00 | 0.00 | 0.00 | 65 | 1009.5 |
| 20260506210537 | 86 | 85 | 4.0 | 8.0 | 0.00 | 0.00 | 0.00 | 70 | 1009.5 |
| 20260506210051 | 85 | 114 | 2.0 | 9.0 | 0.00 | 0.00 | 0.00 | 72 | 1009.5 |
| 20260506205533 | 86 | 57 | 5.0 | 9.0 | 0.00 | 0.00 | 0.00 | 68 | 1009.4 |
| 20260506205036 | 87 | 88 | 2.0 | 8.0 | 0.00 | 0.00 | 0.00 | 68 | 1009.5 |
| 20260506204547 | 86 | 124 | 2.0 | 8.0 | 0.00 | 0.00 | 0.00 | 68 | 1009.6 |
| 20260506204033 | 86 | 305 | 3.0 | 9.0 | 0.00 | 0.00 | 0.00 | 68 | 1009.6 |
| 20260506203533 | 86 | 30 | 1.0 | 9.0 | 0.00 | 0.00 | 0.00 | 69 | 1009.8 |
| 20260506203051 | 85 | 349 | 3.0 | 9.0 | 0.00 | 0.00 | 0.00 | 77 | 1009.8 |
| 20260506202533 | 84 | 59 | 2.0 | 8.0 | 0.00 | 0.00 | 0.00 | 69 | 1009.8 |
| 20260506202033 | 85 | 62 | 3.0 | 9.0 | 0.00 | 0.00 | 0.00 | 72 | 1009.8 |
| 20260506201606 | 86 | 26 | 3.0 | 9.0 | 0.00 | 0.00 | 0.00 | 67 | 1009.8 |
| 20260506201037 | 84 | 355 | 1.0 | 7.0 | 0.00 | 0.00 | 0.00 | 68 | 1009.9 |
| 20260506200533 | 83 | 72 | 2.0 | 9.0 | 0.00 | 0.00 | 0.00 | 74 | 1009.9 |
| 20260506200052 | 84 | 83 | 4.0 | 9.0 | 0.00 | 0.00 | 0.00 | 73 | 1010.0 |
| 20260506195531 | 84 | 99 | 2.0 | 9.0 | 0.00 | 0.00 | 0.00 | 71 | 1009.9 |
| 20260506195032 | 84 | 2 | 4.0 | 9.0 | 0.00 | 0.00 | 0.00 | 71 | 1010.1 |
| 20260506194552 | 84 | 317 | 0.0 | 7.0 | 0.00 | 0.00 | 0.00 | 69 | 1010.1 |
| 20260506194036 | 85 | 94 | 3.0 | 7.0 | 0.00 | 0.00 | 0.00 | 71 | 1010.1 |
| 20260506193530 | 83 | 18 | 1.0 | 4.0 | 0.00 | 0.00 | 0.00 | 76 | 1010.3 |